Zurück zum Katalog

STARLINK-33617

AktivKommunikationVLEO
NORAD 63373·PAYLOAD·🇺🇸 United States

Gestartet Mar 26, 2025 von Vandenberg Space Force Base

Loading…

Nächste Überflüge (nächste 24 Stunden)

TLE

AktuellSource: CelesTrak SupGP

Epoche: Sep 15, 2026, 02:46 UTC

1 63373C 25063L   26258.11576389 -.00035663  00000+0 -10536-2 0  2580
2 63373  53.1578 247.1507 0001423  92.4280  70.5845 15.34411500    18

Verfolge STARLINK-33617 in Echtzeit mit AllMySat

Download on the App Store